Time,TemperatureF,DewpointF,PressureIn,WindDirection,WindDirectionDegrees,WindSpeedMPH,WindSpeedGustMPH,Humidity,HourlyPrecipIn,Conditions,Clouds,dailyrainin,SoftwareType,DateUTC
2013-02-13 00:00:00,48.1,37.7,29.93,NW,310,0.0,0.0,67,0.00,,,0.00,Wunderground v.1.15,2013-02-13 05:00:00,
2013-02-13 00:05:00,48.1,38.4,29.93,NW,310,0.0,0.0,69,0.00,,,0.00,Wunderground v.1.15,2013-02-13 05:05:00,
2013-02-13 00:10:00,47.9,37.5,29.93,NW,310,0.0,0.0,67,0.00,,,0.00,Wunderground v.1.15,2013-02-13 05:10:00,
2013-02-13 00:15:00,47.6,39.4,29.92,NW,310,0.0,0.0,73,0.00,,,0.00,Wunderground v.1.15,2013-02-13 05:15:00,
2013-02-13 00:20:00,47.3,37.6,29.90,ENE,67,0.0,0.0,69,0.00,,,0.00,Wunderground v.1.15,2013-02-13 05:20:00,
2013-02-13 00:25:00,47.5,37.1,29.90,ENE,59,0.0,0.0,67,0.00,,,0.00,Wunderground v.1.15,2013-02-13 05:25:00,
2013-02-13 00:35:00,47.8,37.7,29.91,ENE,59,0.0,0.0,68,0.00,,,0.00,Wunderground v.1.15,2013-02-13 05:35:00,
2013-02-13 00:40:00,47.8,38.5,29.91,ENE,59,0.0,0.0,70,0.00,,,0.00,Wunderground v.1.15,2013-02-13 05:40:00,
2013-02-13 00:45:00,47.6,37.9,29.92,ENE,59,0.0,0.0,69,0.00,,,0.00,Wunderground v.1.15,2013-02-13 05:45:00,
2013-02-13 00:50:00,47.5,37.5,29.91,ENE,59,0.0,0.0,68,0.00,,,0.00,Wunderground v.1.15,2013-02-13 05:50:00,
2013-02-13 01:00:00,47.2,39.3,29.90,ENE,59,0.0,0.0,74,0.00,,,0.00,Wunderground v.1.15,2013-02-13 06:00:00,
2013-02-13 01:05:00,47.0,38.8,29.90,ENE,59,0.0,0.0,73,0.00,,,0.00,Wunderground v.1.15,2013-02-13 06:05:00,
2013-02-13 01:10:00,46.9,39.0,29.89,ENE,59,0.0,0.0,74,0.00,,,0.00,Wunderground v.1.15,2013-02-13 06:10:00,
2013-02-13 01:15:00,46.9,39.4,29.89,ENE,59,0.0,0.0,75,0.00,,,0.00,Wunderground v.1.15,2013-02-13 06:15:00,
2013-02-13 01:20:00,46.8,39.3,29.88,ENE,59,0.0,0.0,75,0.00,,,0.00,Wunderground v.1.15,2013-02-13 06:20:00,
2013-02-13 01:25:00,46.8,40.3,29.88,ENE,59,0.0,0.0,78,0.00,,,0.00,Wunderground v.1.15,2013-02-13 06:25:00,
2013-02-13 01:30:00,46.7,40.5,29.87,ENE,59,0.0,0.0,79,0.00,,,0.00,Wunderground v.1.15,2013-02-13 06:30:00,
2013-02-13 01:35:00,46.5,40.7,29.85,ENE,59,0.0,0.0,80,0.00,,,0.00,Wunderground v.1.15,2013-02-13 06:35:00,
2013-02-13 01:45:00,46.1,40.9,29.87,ENE,59,0.0,0.0,82,0.00,,,0.00,Wunderground v.1.15,2013-02-13 06:45:00,
2013-02-13 01:50:00,45.9,41.9,29.87,ENE,59,0.0,0.0,86,0.00,,,0.00,Wunderground v.1.15,2013-02-13 06:50:00,
2013-02-13 01:55:00,45.6,41.4,29.85,ENE,59,0.0,0.0,85,0.00,,,0.00,Wunderground v.1.15,2013-02-13 06:55:00,
2013-02-13 02:00:00,45.5,41.9,29.86,ENE,59,0.0,0.0,87,0.00,,,0.00,Wunderground v.1.15,2013-02-13 07:00:00,
2013-02-13 02:10:00,45.3,42.0,29.88,ENE,59,0.0,0.0,88,0.00,,,0.01,Wunderground v.1.15,2013-02-13 07:10:00,
2013-02-13 02:15:00,45.2,42.2,29.89,ENE,59,0.0,0.0,89,0.13,,,0.02,Wunderground v.1.15,2013-02-13 07:15:00,
2013-02-13 02:20:00,45.0,42.2,29.88,ENE,59,0.0,0.0,90,0.24,,,0.04,Wunderground v.1.15,2013-02-13 07:20:00,
2013-02-13 02:25:00,44.8,42.3,29.87,ENE,59,0.0,0.0,91,0.26,,,0.05,Wunderground v.1.15,2013-02-13 07:25:00,
2013-02-13 02:35:00,44.5,42.3,29.87,ENE,59,0.0,0.0,92,0.17,,,0.08,Wunderground v.1.15,2013-02-13 07:35:00,
2013-02-13 02:40:00,44.3,42.4,29.86,ENE,59,0.0,0.0,93,0.09,,,0.08,Wunderground v.1.15,2013-02-13 07:40:00,
2013-02-13 02:45:00,44.2,42.3,29.85,ENE,59,0.0,0.0,93,0.20,,,0.10,Wunderground v.1.15,2013-02-13 07:45:00,
2013-02-13 02:55:00,44.1,42.5,29.84,ENE,58,0.0,0.0,94,0.10,,,0.11,Wunderground v.1.15,2013-02-13 07:55:00,
2013-02-13 03:00:00,44.1,42.5,29.84,ENE,59,0.0,0.0,94,0.09,,,0.12,Wunderground v.1.15,2013-02-13 08:00:00,
2013-02-13 03:05:00,44.0,42.4,29.84,ENE,59,0.0,0.0,94,0.06,,,0.12,Wunderground v.1.15,2013-02-13 08:05:00,
2013-02-13 03:10:00,43.8,42.2,29.84,ENE,59,0.0,0.0,94,0.06,,,0.13,Wunderground v.1.15,2013-02-13 08:10:00,
2013-02-13 03:20:00,43.7,42.1,29.84,ENE,59,0.0,0.0,94,0.07,,,0.14,Wunderground v.1.15,2013-02-13 08:20:00,
2013-02-13 03:25:00,43.6,42.3,29.83,ENE,59,0.0,0.0,95,0.06,,,0.14,Wunderground v.1.15,2013-02-13 08:25:00,
2013-02-13 03:30:00,43.6,42.3,29.83,ENE,59,0.0,0.0,95,0.04,,,0.14,Wunderground v.1.15,2013-02-13 08:30:00,
2013-02-13 03:40:00,43.6,42.3,29.82,ENE,59,0.0,0.0,95,0.00,,,0.15,Wunderground v.1.15,2013-02-13 08:40:00,
2013-02-13 03:45:00,43.6,42.3,29.82,ENE,59,0.0,0.0,95,0.08,,,0.16,Wunderground v.1.15,2013-02-13 08:45:00,
2013-02-13 03:50:00,43.6,42.3,29.83,ENE,59,0.0,0.0,95,0.07,,,0.16,Wunderground v.1.15,2013-02-13 08:50:00,
2013-02-13 04:00:00,43.6,42.3,29.83,ENE,59,0.0,0.0,95,0.00,,,0.17,Wunderground v.1.15,2013-02-13 09:00:00,
2013-02-13 04:05:00,43.6,42.3,29.83,ENE,59,0.0,0.0,95,0.19,,,0.18,Wunderground v.1.15,2013-02-13 09:05:00,
2013-02-13 04:10:00,43.5,42.2,29.84,ENE,59,0.0,0.0,95,0.26,,,0.20,Wunderground v.1.15,2013-02-13 09:10:00,
2013-02-13 04:15:00,43.5,42.2,29.83,West,262,0.0,0.0,95,0.12,,,0.21,Wunderground v.1.15,2013-02-13 09:15:00,
2013-02-13 04:25:00,43.4,42.1,29.83,West,262,0.0,0.0,95,0.15,,,0.23,Wunderground v.1.15,2013-02-13 09:25:00,
2013-02-13 04:30:00,43.3,42.0,29.82,West,262,0.0,0.0,95,0.14,,,0.24,Wunderground v.1.15,2013-02-13 09:30:00,
2013-02-13 04:35:00,43.3,42.0,29.82,West,262,0.0,0.0,95,0.13,,,0.25,Wunderground v.1.15,2013-02-13 09:35:00,
2013-02-13 04:45:00,43.2,42.1,29.82,West,262,0.0,0.0,96,0.08,,,0.27,Wunderground v.1.15,2013-02-13 09:45:00,
2013-02-13 04:50:00,43.1,42.0,29.82,West,262,0.0,0.0,96,0.08,,,0.27,Wunderground v.1.15,2013-02-13 09:50:00,
2013-02-13 04:55:00,43.1,42.0,29.82,West,262,0.0,0.0,96,0.05,,,0.27,Wunderground v.1.15,2013-02-13 09:55:00,
2013-02-13 05:00:00,43.1,42.0,29.82,West,262,0.0,0.0,96,0.04,,,0.28,Wunderground v.1.15,2013-02-13 10:00:00,
2013-02-13 05:10:00,43.1,42.0,29.82,West,262,0.0,0.0,96,0.04,,,0.28,Wunderground v.1.15,2013-02-13 10:10:00,
2013-02-13 05:15:00,43.0,41.9,29.82,West,262,0.0,0.0,96,0.04,,,0.29,Wunderground v.1.15,2013-02-13 10:15:00,
2013-02-13 05:25:00,43.0,41.9,29.82,NNW,347,0.0,0.0,96,0.04,,,0.29,Wunderground v.1.15,2013-02-13 10:25:00,
2013-02-13 05:30:00,43.0,41.9,29.82,NNW,347,0.0,0.0,96,0.00,,,0.29,Wunderground v.1.15,2013-02-13 10:30:00,
2013-02-13 05:35:00,43.0,41.9,29.82,NNW,347,0.0,0.0,96,0.00,,,0.29,Wunderground v.1.15,2013-02-13 10:35:00,
2013-02-13 05:40:00,43.0,41.9,29.81,NNE,26,0.0,0.0,96,0.00,,,0.29,Wunderground v.1.15,2013-02-13 10:40:00,
2013-02-13 05:50:00,43.0,41.9,29.81,NNE,26,0.0,0.0,96,0.00,,,0.29,Wunderground v.1.15,2013-02-13 10:50:00,
2013-02-13 05:55:00,43.0,41.9,29.81,NNE,26,0.0,0.0,96,0.00,,,0.29,Wunderground v.1.15,2013-02-13 10:55:00,
2013-02-13 06:00:00,43.0,41.9,29.81,NNE,26,0.0,0.0,96,0.00,,,0.29,Wunderground v.1.15,2013-02-13 11:00:00,
2013-02-13 06:05:00,42.9,41.8,29.82,NNE,26,0.0,0.0,96,0.00,,,0.29,Wunderground v.1.15,2013-02-13 11:05:00,
2013-02-13 06:15:00,42.9,41.8,29.82,NNE,26,0.0,0.0,96,0.00,,,0.29,Wunderground v.1.15,2013-02-13 11:15:00,
2013-02-13 06:20:00,42.9,41.8,29.81,NNE,26,0.0,0.0,96,0.00,,,0.29,Wunderground v.1.15,2013-02-13 11:20:00,
2013-02-13 06:25:00,42.9,41.8,29.81,NNE,26,0.0,0.0,96,0.00,,,0.29,Wunderground v.1.15,2013-02-13 11:25:00,
2013-02-13 06:35:00,42.9,41.8,29.80,NNE,26,0.0,0.0,96,0.00,,,0.29,Wunderground v.1.15,2013-02-13 11:35:00,
2013-02-13 06:40:00,42.9,41.8,29.80,NE,46,0.0,0.0,96,0.00,,,0.29,Wunderground v.1.15,2013-02-13 11:40:00,
2013-02-13 06:45:00,42.9,41.8,29.79,NE,46,0.0,0.0,96,0.00,,,0.29,Wunderground v.1.15,2013-02-13 11:45:00,
2013-02-13 06:50:00,42.9,41.8,29.79,NE,46,0.0,0.0,96,0.00,,,0.29,Wunderground v.1.15,2013-02-13 11:50:00,
2013-02-13 07:00:00,42.9,41.8,29.81,NE,46,0.0,0.0,96,0.00,,,0.29,Wunderground v.1.15,2013-02-13 12:00:00,
2013-02-13 07:05:00,42.9,41.8,29.80,NE,46,0.0,0.0,96,0.00,,,0.29,Wunderground v.1.15,2013-02-13 12:05:00,
2013-02-13 07:10:00,42.8,41.7,29.80,NE,46,0.0,0.0,96,0.00,,,0.29,Wunderground v.1.15,2013-02-13 12:10:00,
2013-02-13 07:15:00,42.8,41.7,29.81,NE,53,0.0,0.0,96,0.00,,,0.29,Wunderground v.1.15,2013-02-13 12:15:00,
2013-02-13 07:25:00,42.8,41.7,29.81,NE,53,0.0,0.0,96,0.00,,,0.29,Wunderground v.1.15,2013-02-13 12:25:00,
2013-02-13 07:30:00,42.8,41.7,29.80,NE,53,0.0,0.0,96,0.00,,,0.29,Wunderground v.1.15,2013-02-13 12:30:00,
2013-02-13 07:35:00,42.7,41.6,29.81,NE,53,0.0,0.0,96,0.00,,,0.29,Wunderground v.1.15,2013-02-13 12:35:00,
2013-02-13 07:45:00,42.7,41.6,29.80,NE,53,0.0,0.0,96,0.00,,,0.29,Wunderground v.1.15,2013-02-13 12:45:00,
2013-02-13 07:50:00,42.7,41.6,29.80,NE,53,0.0,0.0,96,0.00,,,0.29,Wunderground v.1.15,2013-02-13 12:50:00,
2013-02-13 07:55:00,42.7,41.6,29.80,NE,53,0.0,0.0,96,0.00,,,0.29,Wunderground v.1.15,2013-02-13 12:55:00,
2013-02-13 08:05:00,42.8,42.0,29.82,NE,53,0.0,0.0,97,0.00,,,0.29,Wunderground v.1.15,2013-02-13 13:05:00,
2013-02-13 08:10:00,42.8,42.0,29.82,NE,53,0.0,0.0,97,0.00,,,0.29,Wunderground v.1.15,2013-02-13 13:10:00,
2013-02-13 08:15:00,42.9,42.1,29.82,NE,53,0.0,0.0,97,0.00,,,0.29,Wunderground v.1.15,2013-02-13 13:15:00,
2013-02-13 08:20:00,42.9,42.1,29.80,NE,53,0.0,0.0,97,0.00,,,0.29,Wunderground v.1.15,2013-02-13 13:20:00,
2013-02-13 08:30:00,42.9,42.1,29.80,East,95,0.0,0.0,97,0.00,,,0.29,Wunderground v.1.15,2013-02-13 13:30:00,
2013-02-13 08:35:00,42.9,42.1,29.80,East,95,0.0,0.0,97,0.00,,,0.29,Wunderground v.1.15,2013-02-13 13:35:00,
2013-02-13 08:40:00,43.0,42.2,29.81,East,95,0.0,0.0,97,0.00,,,0.29,Wunderground v.1.15,2013-02-13 13:40:00,
2013-02-13 08:50:00,43.0,41.9,29.81,East,95,0.0,0.0,96,0.00,,,0.29,Wunderground v.1.15,2013-02-13 13:50:00,
2013-02-13 08:55:00,43.1,42.3,29.81,East,95,0.0,0.0,97,0.00,,,0.29,Wunderground v.1.15,2013-02-13 13:55:00,
2013-02-13 09:00:00,43.0,41.9,29.80,ENE,78,0.0,0.0,96,0.00,,,0.29,Wunderground v.1.15,2013-02-13 14:00:00,
2013-02-13 09:05:00,43.0,41.9,29.80,East,88,0.0,0.0,96,0.00,,,0.29,Wunderground v.1.15,2013-02-13 14:05:00,
2013-02-13 09:15:00,43.0,41.9,29.80,East,101,0.0,0.0,96,0.00,,,0.29,Wunderground v.1.15,2013-02-13 14:15:00,
2013-02-13 09:20:00,43.0,41.9,29.79,ENE,69,0.0,0.0,96,0.00,,,0.29,Wunderground v.1.15,2013-02-13 14:20:00,
2013-02-13 09:25:00,43.0,41.9,29.78,East,86,0.0,0.0,96,0.00,,,0.29,Wunderground v.1.15,2013-02-13 14:25:00,
2013-02-13 09:35:00,43.1,42.0,29.78,East,88,0.0,0.0,96,0.00,,,0.29,Wunderground v.1.15,2013-02-13 14:35:00,
2013-02-13 09:40:00,43.2,42.1,29.77,East,91,0.0,0.0,96,0.00,,,0.29,Wunderground v.1.15,2013-02-13 14:40:00,
2013-02-13 09:45:00,43.1,42.0,29.77,East,91,0.0,0.0,96,0.00,,,0.29,Wunderground v.1.15,2013-02-13 14:45:00,
2013-02-13 09:50:00,43.2,42.1,29.76,East,91,0.0,0.0,96,0.00,,,0.29,Wunderground v.1.15,2013-02-13 14:50:00,
2013-02-13 09:55:00,43.3,42.2,29.76,East,92,0.0,0.0,96,0.00,,,0.29,Wunderground v.1.15,2013-02-13 14:55:00,
2013-02-13 10:05:00,43.5,42.4,29.77,ENE,76,0.0,0.0,96,0.00,,,0.29,Wunderground v.1.15,2013-02-13 15:05:00,
2013-02-13 10:10:00,43.5,42.4,29.78,ENE,78,0.0,0.0,96,0.00,,,0.29,Wunderground v.1.15,2013-02-13 15:10:00,
2013-02-13 10:15:00,43.5,42.4,29.78,South,169,0.0,0.0,96,0.00,,,0.29,Wunderground v.1.15,2013-02-13 15:15:00,
2013-02-13 10:25:00,43.4,42.1,29.77,South,169,0.0,0.0,95,0.00,,,0.29,Wunderground v.1.15,2013-02-13 15:25:00,
2013-02-13 10:30:00,43.4,42.1,29.78,South,169,0.0,0.0,95,0.00,,,0.29,Wunderground v.1.15,2013-02-13 15:30:00,
2013-02-13 10:35:00,43.5,42.4,29.75,South,182,0.0,0.0,96,0.00,,,0.29,Wunderground v.1.15,2013-02-13 15:35:00,
2013-02-13 10:45:00,43.6,42.5,29.77,NE,47,0.0,0.0,96,0.00,,,0.29,Wunderground v.1.15,2013-02-13 15:45:00,
2013-02-13 10:50:00,43.6,42.5,29.76,NE,47,0.0,0.0,96,0.00,,,0.29,Wunderground v.1.15,2013-02-13 15:50:00,
2013-02-13 10:55:00,43.6,42.5,29.76,NE,47,0.0,0.0,96,0.00,,,0.29,Wunderground v.1.15,2013-02-13 15:55:00,
2013-02-13 11:00:00,43.6,42.5,29.76,NE,47,0.0,0.0,96,0.00,,,0.29,Wunderground v.1.15,2013-02-13 16:00:00,
2013-02-13 11:10:00,43.6,42.5,29.75,NE,47,0.0,0.0,96,0.00,,,0.29,Wunderground v.1.15,2013-02-13 16:10:00,
2013-02-13 11:15:00,43.7,42.6,29.75,NE,47,0.0,0.0,96,0.00,,,0.29,Wunderground v.1.15,2013-02-13 16:15:00,
2013-02-13 11:20:00,43.7,42.6,29.75,NE,47,0.0,0.0,96,0.00,,,0.29,Wunderground v.1.15,2013-02-13 16:20:00,
2013-02-13 11:30:00,43.8,42.7,29.74,NE,47,0.0,0.0,96,0.00,,,0.29,Wunderground v.1.15,2013-02-13 16:30:00,
2013-02-13 11:35:00,43.8,42.7,29.73,NE,47,0.0,0.0,96,0.00,,,0.29,Wunderground v.1.15,2013-02-13 16:35:00,
2013-02-13 11:40:00,43.8,42.7,29.72,NE,47,0.0,0.0,96,0.00,,,0.29,Wunderground v.1.15,2013-02-13 16:40:00,
2013-02-13 11:45:00,43.9,42.8,29.72,NE,47,0.0,0.0,96,0.00,,,0.29,Wunderground v.1.15,2013-02-13 16:45:00,
2013-02-13 11:55:00,44.1,43.0,29.73,NE,47,0.0,0.0,96,0.00,,,0.29,Wunderground v.1.15,2013-02-13 16:55:00,
2013-02-13 12:00:00,44.2,43.1,29.72,ESE,113,0.0,0.0,96,0.00,,,0.29,Wunderground v.1.15,2013-02-13 17:00:00,
2013-02-13 12:05:00,44.3,43.2,29.72,ESE,113,0.0,0.0,96,0.00,,,0.29,Wunderground v.1.15,2013-02-13 17:05:00,
2013-02-13 12:10:00,44.3,43.2,29.70,ESE,113,0.0,0.0,96,0.00,,,0.29,Wunderground v.1.15,2013-02-13 17:10:00,
2013-02-13 12:20:00,44.3,43.0,29.70,ESE,113,0.0,0.0,95,0.00,,,0.29,Wunderground v.1.15,2013-02-13 17:20:00,
2013-02-13 12:25:00,44.4,43.1,29.70,ESE,113,0.0,0.0,95,0.00,,,0.29,Wunderground v.1.15,2013-02-13 17:25:00,
2013-02-13 12:35:00,44.5,43.2,29.69,ESE,113,0.0,0.0,95,0.00,,,0.29,Wunderground v.1.15,2013-02-13 17:35:00,
2013-02-13 12:40:00,44.5,43.2,29.70,ESE,113,0.0,0.0,95,0.00,,,0.29,Wunderground v.1.15,2013-02-13 17:40:00,
2013-02-13 12:45:00,44.5,43.4,29.68,ESE,113,0.0,0.0,96,0.00,,,0.29,Wunderground v.1.15,2013-02-13 17:45:00,
2013-02-13 12:50:00,44.6,43.5,29.68,ESE,113,0.0,0.0,96,0.00,,,0.29,Wunderground v.1.15,2013-02-13 17:50:00,
2013-02-13 13:00:00,44.4,43.1,29.66,ESE,113,0.0,0.0,95,0.00,,,0.29,Wunderground v.1.15,2013-02-13 18:00:00,
2013-02-13 13:05:00,44.4,43.3,29.67,SW,233,0.0,0.0,96,0.00,,,0.29,Wunderground v.1.15,2013-02-13 18:05:00,
2013-02-13 13:10:00,44.4,43.3,29.69,SW,233,0.0,0.0,96,0.00,,,0.29,Wunderground v.1.15,2013-02-13 18:10:00,
2013-02-13 13:20:00,44.5,43.4,29.67,SSW,201,0.0,0.0,96,0.00,,,0.30,Wunderground v.1.15,2013-02-13 18:20:00,
2013-02-13 13:25:00,44.5,43.4,29.66,South,178,0.0,0.0,96,0.00,,,0.30,Wunderground v.1.15,2013-02-13 18:25:00,
2013-02-13 13:30:00,44.7,43.6,29.65,South,178,0.0,0.0,96,0.00,,,0.30,Wunderground v.1.15,2013-02-13 18:30:00,
2013-02-13 13:35:00,44.7,43.6,29.65,South,178,0.0,0.0,96,0.00,,,0.30,Wunderground v.1.15,2013-02-13 18:35:00,
2013-02-13 13:45:00,44.8,43.7,29.63,South,178,0.0,0.0,96,0.00,,,0.30,Wunderground v.1.15,2013-02-13 18:45:00,
2013-02-13 13:50:00,44.8,43.7,29.65,SW,217,0.0,0.0,96,0.00,,,0.30,Wunderground v.1.15,2013-02-13 18:50:00,
2013-02-13 13:55:00,44.7,43.6,29.65,SW,217,0.0,0.0,96,0.00,,,0.30,Wunderground v.1.15,2013-02-13 18:55:00,
2013-02-13 14:05:00,44.7,43.6,29.65,South,171,0.0,0.0,96,0.00,,,0.30,Wunderground v.1.15,2013-02-13 19:05:00,
2013-02-13 14:10:00,44.6,43.5,29.64,South,171,0.0,0.0,96,0.00,,,0.30,Wunderground v.1.15,2013-02-13 19:10:00,
2013-02-13 14:15:00,44.7,43.6,29.63,South,173,0.0,0.0,96,0.00,,,0.30,Wunderground v.1.15,2013-02-13 19:15:00,
2013-02-13 14:25:00,44.8,43.7,29.64,South,173,0.0,0.0,96,0.00,,,0.30,Wunderground v.1.15,2013-02-13 19:25:00,
2013-02-13 14:30:00,44.9,43.8,29.65,SW,220,0.0,0.0,96,0.00,,,0.30,Wunderground v.1.15,2013-02-13 19:30:00,
2013-02-13 14:35:00,45.0,43.9,29.64,SW,220,0.0,0.0,96,0.00,,,0.30,Wunderground v.1.15,2013-02-13 19:35:00,
2013-02-13 14:40:00,45.0,43.9,29.65,South,173,0.0,0.0,96,0.00,,,0.30,Wunderground v.1.15,2013-02-13 19:40:00,
2013-02-13 14:50:00,45.2,44.1,29.64,SW,221,0.0,1.0,96,0.00,,,0.30,Wunderground v.1.15,2013-02-13 19:50:00,
2013-02-13 14:55:00,45.2,44.1,29.65,WSW,238,0.0,1.0,96,0.00,,,0.30,Wunderground v.1.15,2013-02-13 19:55:00,
2013-02-13 15:00:00,45.2,44.1,29.64,WSW,238,0.0,0.0,96,0.00,,,0.30,Wunderground v.1.15,2013-02-13 20:00:00,
2013-02-13 15:10:00,45.1,44.0,29.65,SW,230,1.0,1.0,96,0.00,,,0.30,Wunderground v.1.15,2013-02-13 20:10:00,
2013-02-13 15:15:00,45.2,44.1,29.64,WSW,249,0.0,1.0,96,0.00,,,0.30,Wunderground v.1.15,2013-02-13 20:15:00,
2013-02-13 15:20:00,45.3,44.2,29.63,South,173,0.0,0.0,96,0.00,,,0.30,Wunderground v.1.15,2013-02-13 20:20:00,
2013-02-13 15:30:00,45.3,44.2,29.64,SW,223,0.0,0.0,96,0.00,,,0.30,Wunderground v.1.15,2013-02-13 20:30:00,
2013-02-13 15:35:00,45.3,44.2,29.65,SSW,198,0.0,1.0,96,0.00,,,0.30,Wunderground v.1.15,2013-02-13 20:35:00,
2013-02-13 15:40:00,45.4,44.3,29.65,SSW,192,0.0,0.0,96,0.00,,,0.30,Wunderground v.1.15,2013-02-13 20:40:00,
2013-02-13 15:50:00,45.5,44.4,29.65,SSE,164,0.0,0.0,96,0.00,,,0.30,Wunderground v.1.15,2013-02-13 20:50:00,
2013-02-13 15:55:00,45.5,44.4,29.64,South,178,0.0,1.0,96,0.00,,,0.30,Wunderground v.1.15,2013-02-13 20:55:00,
2013-02-13 16:00:00,45.5,44.4,29.63,South,173,0.0,0.0,96,0.00,,,0.30,Wunderground v.1.15,2013-02-13 21:00:00,
2013-02-13 16:05:00,45.4,44.3,29.64,WSW,254,0.0,0.0,96,0.00,,,0.30,Wunderground v.1.15,2013-02-13 21:05:00,
2013-02-13 16:15:00,45.6,44.5,29.64,WSW,238,0.0,0.0,96,0.00,,,0.30,Wunderground v.1.15,2013-02-13 21:15:00,
2013-02-13 16:20:00,45.6,44.5,29.65,WSW,250,0.0,0.0,96,0.00,,,0.30,Wunderground v.1.15,2013-02-13 21:20:00,
2013-02-13 16:25:00,45.6,44.5,29.65,WSW,252,0.0,2.0,96,0.00,,,0.30,Wunderground v.1.15,2013-02-13 21:25:00,
2013-02-13 16:30:00,45.6,44.5,29.65,SW,234,0.0,0.0,96,0.00,,,0.30,Wunderground v.1.15,2013-02-13 21:30:00,
2013-02-13 16:40:00,45.6,44.5,29.65,WSW,246,0.0,0.0,96,0.00,,,0.30,Wunderground v.1.15,2013-02-13 21:40:00,
2013-02-13 16:45:00,45.6,44.5,29.65,WSW,244,1.0,1.0,96,0.00,,,0.30,Wunderground v.1.15,2013-02-13 21:45:00,
2013-02-13 16:50:00,45.6,44.5,29.66,WSW,239,1.0,1.0,96,0.00,,,0.30,Wunderground v.1.15,2013-02-13 21:50:00,
2013-02-13 17:00:00,45.6,44.5,29.66,West,278,1.0,2.0,96,0.00,,,0.30,Wunderground v.1.15,2013-02-13 22:00:00,
2013-02-13 17:05:00,45.6,44.5,29.66,West,278,0.0,2.0,96,0.00,,,0.30,Wunderground v.1.15,2013-02-13 22:05:00,
2013-02-13 17:10:00,45.6,44.5,29.66,West,278,0.0,0.0,96,0.00,,,0.30,Wunderground v.1.15,2013-02-13 22:10:00,
2013-02-13 17:20:00,45.6,44.5,29.66,WNW,282,1.0,1.0,96,0.00,,,0.30,Wunderground v.1.15,2013-02-13 22:20:00,
2013-02-13 17:25:00,45.5,44.4,29.66,WSW,256,0.0,1.0,96,0.00,,,0.30,Wunderground v.1.15,2013-02-13 22:25:00,
2013-02-13 17:30:00,45.5,44.4,29.66,WSW,240,0.0,0.0,96,0.00,,,0.30,Wunderground v.1.15,2013-02-13 22:30:00,
2013-02-13 17:40:00,45.5,44.4,29.66,WSW,250,1.0,1.0,96,0.00,,,0.30,Wunderground v.1.15,2013-02-13 22:40:00,
2013-02-13 17:45:00,45.5,44.4,29.67,SSW,212,0.0,1.0,96,0.00,,,0.30,Wunderground v.1.15,2013-02-13 22:45:00,
2013-02-13 17:50:00,45.5,44.4,29.67,WSW,238,0.0,0.0,96,0.00,,,0.30,Wunderground v.1.15,2013-02-13 22:50:00,
2013-02-13 17:55:00,45.5,44.4,29.66,SW,234,0.0,0.0,96,0.00,,,0.30,Wunderground v.1.15,2013-02-13 22:55:00,
2013-02-13 18:05:00,45.6,44.5,29.67,WSW,240,0.0,0.0,96,0.00,,,0.30,Wunderground v.1.15,2013-02-13 23:05:00,
2013-02-13 18:10:00,45.6,44.5,29.68,WSW,241,0.0,0.0,96,0.00,,,0.30,Wunderground v.1.15,2013-02-13 23:10:00,
2013-02-13 18:15:00,45.6,44.5,29.69,SSW,192,0.0,0.0,96,0.00,,,0.30,Wunderground v.1.15,2013-02-13 23:15:00,
2013-02-13 18:25:00,45.7,44.6,29.69,WSW,244,1.0,1.0,96,0.00,,,0.30,Wunderground v.1.15,2013-02-13 23:25:00,
2013-02-13 18:30:00,45.8,45.0,29.69,West,259,1.0,1.0,97,0.00,,,0.30,Wunderground v.1.15,2013-02-13 23:30:00,
2013-02-13 18:35:00,45.8,45.0,29.69,WSW,246,1.0,3.0,97,0.00,,,0.30,Wunderground v.1.15,2013-02-13 23:35:00,
2013-02-13 18:45:00,45.9,44.8,29.70,West,275,1.0,1.0,96,0.00,,,0.30,Wunderground v.1.15,2013-02-13 23:45:00,
2013-02-13 18:50:00,46.0,44.9,29.70,WSW,243,1.0,1.0,96,0.00,,,0.30,Wunderground v.1.15,2013-02-13 23:50:00,
2013-02-13 18:55:00,46.0,44.9,29.70,West,270,1.0,3.0,96,0.00,,,0.30,Wunderground v.1.15,2013-02-13 23:55:00,
2013-02-13 19:00:00,46.0,44.9,29.71,West,279,1.0,1.0,96,0.00,,,0.30,Wunderground v.1.15,2013-02-14 00:00:00,
2013-02-13 19:10:00,46.1,45.0,29.71,WNW,291,1.0,1.0,96,0.00,,,0.30,Wunderground v.1.15,2013-02-14 00:10:00,
2013-02-13 19:15:00,46.1,45.0,29.72,WSW,249,2.0,2.0,96,0.00,,,0.30,Wunderground v.1.15,2013-02-14 00:15:00,
2013-02-13 19:25:00,46.3,44.9,29.72,NW,306,1.0,2.0,95,0.00,,,0.30,Wunderground v.1.15,2013-02-14 00:25:00,
2013-02-13 19:30:00,46.3,44.9,29.72,WSW,254,1.0,1.0,95,0.00,,,0.30,Wunderground v.1.15,2013-02-14 00:30:00,
2013-02-13 19:35:00,46.3,44.9,29.73,West,278,2.0,4.0,95,0.00,,,0.30,Wunderground v.1.15,2013-02-14 00:35:00,
2013-02-13 19:45:00,46.3,44.9,29.73,West,263,2.0,4.0,95,0.00,,,0.30,Wunderground v.1.15,2013-02-14 00:45:00,
2013-02-13 19:50:00,46.4,45.0,29.73,WNW,289,2.0,2.0,95,0.00,,,0.30,Wunderground v.1.15,2013-02-14 00:50:00,
2013-02-13 19:55:00,46.4,45.0,29.74,West,281,2.0,3.0,95,0.00,,,0.30,Wunderground v.1.15,2013-02-14 00:55:00,
2013-02-13 20:05:00,46.4,45.0,29.74,WSW,247,2.0,2.0,95,0.00,,,0.30,Wunderground v.1.15,2013-02-14 01:05:00,
2013-02-13 20:10:00,46.4,45.0,29.74,West,262,2.0,2.0,95,0.00,,,0.30,Wunderground v.1.15,2013-02-14 01:10:00,
2013-02-13 20:15:00,46.4,45.0,29.74,South,172,3.0,3.0,95,0.00,,,0.30,Wunderground v.1.15,2013-02-14 01:15:00,
2013-02-13 20:20:00,46.4,44.8,29.74,WNW,292,3.0,3.0,94,0.00,,,0.30,Wunderground v.1.15,2013-02-14 01:20:00,
2013-02-13 20:30:00,46.4,44.8,29.74,WSW,256,2.0,3.0,94,0.00,,,0.30,Wunderground v.1.15,2013-02-14 01:30:00,
2013-02-13 20:35:00,46.4,44.8,29.74,NNW,327,1.0,3.0,94,0.00,,,0.30,Wunderground v.1.15,2013-02-14 01:35:00,
2013-02-13 20:40:00,46.4,44.8,29.75,NW,304,0.0,0.0,94,0.00,,,0.30,Wunderground v.1.15,2013-02-14 01:40:00,
2013-02-13 20:45:00,46.4,44.8,29.75,West,277,1.0,3.0,94,0.00,,,0.30,Wunderground v.1.15,2013-02-14 01:45:00,
2013-02-13 20:55:00,46.0,43.2,29.76,WNW,282,1.0,2.0,90,0.00,,,0.30,Wunderground v.1.15,2013-02-14 01:55:00,
2013-02-13 21:00:00,45.7,42.9,29.77,SW,221,0.0,3.0,90,0.00,,,0.30,Wunderground v.1.15,2013-02-14 02:00:00,
2013-02-13 21:10:00,44.9,41.3,29.77,NNE,22,1.0,1.0,87,0.00,,,0.30,Wunderground v.1.15,2013-02-14 02:10:00,
2013-02-13 21:15:00,44.6,41.0,29.77,North,355,0.0,1.0,87,0.00,,,0.30,Wunderground v.1.15,2013-02-14 02:15:00,
2013-02-13 21:20:00,44.2,40.6,29.78,North,351,0.0,0.0,87,0.00,,,0.30,Wunderground v.1.15,2013-02-14 02:20:00,
2013-02-13 21:25:00,43.8,40.2,29.78,North,351,0.0,0.0,87,0.00,,,0.30,Wunderground v.1.15,2013-02-14 02:25:00,
2013-02-13 21:35:00,43.3,39.7,29.78,NW,313,0.0,1.0,87,0.00,,,0.30,Wunderground v.1.15,2013-02-14 02:35:00,
2013-02-13 21:40:00,42.9,39.6,29.78,NNE,30,0.0,0.0,88,0.00,,,0.30,Wunderground v.1.15,2013-02-14 02:40:00,
2013-02-13 21:45:00,42.3,39.0,29.79,NW,305,0.0,0.0,88,0.00,,,0.30,Wunderground v.1.15,2013-02-14 02:45:00,
2013-02-13 21:55:00,41.8,37.9,29.79,NNE,26,0.0,0.0,86,0.00,,,0.30,Wunderground v.1.15,2013-02-14 02:55:00,
2013-02-13 22:00:00,41.8,37.6,29.80,East,84,0.0,0.0,85,0.00,,,0.30,Wunderground v.1.15,2013-02-14 03:00:00,
2013-02-13 22:05:00,41.6,37.4,29.80,NE,38,0.0,0.0,85,0.00,,,0.30,Wunderground v.1.15,2013-02-14 03:05:00,
2013-02-13 22:10:00,41.5,37.0,29.80,NE,36,0.0,0.0,84,0.00,,,0.30,Wunderground v.1.15,2013-02-14 03:10:00,
2013-02-13 22:20:00,40.8,37.2,29.81,NE,36,0.0,0.0,87,0.00,,,0.30,Wunderground v.1.15,2013-02-14 03:20:00,
2013-02-13 22:25:00,40.4,36.8,29.81,NE,36,0.0,0.0,87,0.00,,,0.30,Wunderground v.1.15,2013-02-14 03:25:00,
2013-02-13 22:30:00,40.0,36.7,29.82,NE,36,0.0,0.0,88,0.00,,,0.30,Wunderground v.1.15,2013-02-14 03:30:00,
2013-02-13 22:40:00,39.2,36.2,29.82,NE,36,0.0,0.0,89,0.00,,,0.30,Wunderground v.1.15,2013-02-14 03:40:00,
2013-02-13 22:45:00,38.8,36.1,29.82,NE,36,0.0,0.0,90,0.00,,,0.30,Wunderground v.1.15,2013-02-14 03:45:00,
2013-02-13 22:50:00,38.5,36.1,29.82,NE,36,0.0,0.0,91,0.00,,,0.30,Wunderground v.1.15,2013-02-14 03:50:00,
2013-02-13 23:00:00,38.1,35.7,29.82,NE,36,0.0,0.0,91,0.00,,,0.30,Wunderground v.1.15,2013-02-14 04:00:00,
2013-02-13 23:05:00,37.9,35.5,29.82,ENE,58,0.0,0.0,91,0.00,,,0.30,Wunderground v.1.15,2013-02-14 04:05:00,
2013-02-13 23:10:00,37.8,35.4,29.83,ENE,58,0.0,0.0,91,0.00,,,0.30,Wunderground v.1.15,2013-02-14 04:10:00,
2013-02-13 23:15:00,37.7,35.3,29.82,ENE,58,0.0,0.0,91,0.00,,,0.30,Wunderground v.1.15,2013-02-14 04:15:00,
2013-02-13 23:25:00,37.4,35.0,29.83,ENE,58,0.0,0.0,91,0.00,,,0.30,Wunderground v.1.15,2013-02-14 04:25:00,
2013-02-13 23:30:00,37.3,34.9,29.83,ENE,58,0.0,0.0,91,0.00,,,0.30,Wunderground v.1.15,2013-02-14 04:30:00,
2013-02-13 23:35:00,37.3,34.9,29.84,ENE,58,0.0,0.0,91,0.00,,,0.30,Wunderground v.1.15,2013-02-14 04:35:00,
2013-02-13 23:45:00,37.2,34.8,29.84,NE,52,0.0,0.0,91,0.00,,,0.30,Wunderground v.1.15,2013-02-14 04:45:00,
2013-02-13 23:50:00,37.1,34.7,29.84,NE,52,0.0,0.0,91,0.00,,,0.30,Wunderground v.1.15,2013-02-14 04:50:00,
2013-02-13 23:55:00,37.0,34.6,29.84,NE,52,0.0,0.0,91,0.00,,,0.30,Wunderground v.1.15,2013-02-14 04:55:00,